Data supplied by UK-AIR on 3/5/2024
All Data GMT hour ending 
Status: R =Ratified P=Provisional,P*=As supplied
,,Greenock A8 Roadside,,,,,,,,,,,,,,,,,,,,,,,
Date,time,"PM<sub>10</sub> particulate matter (Hourly measured)",status,unit,"Nitric oxide",status,unit,"Nitrogen dioxide",status,unit,"Nitrogen oxides as nitrogen dioxide",status,unit,"PM<sub>2.5</sub> particulate matter (Hourly measured)",status,unit
 
01-01-2024,01:00,8.600,P,ugm-3 (FIDAS),8.96435,P,ugm-3,32.83879,P,ugm-3,46.58393,P,ugm-3,6.486,P,ugm-3 (Ref.eq)
01-01-2024,02:00,10.675,P,ugm-3 (FIDAS),5.32400,P,ugm-3,20.51994,P,ugm-3,28.68330,P,ugm-3,7.830,P,ugm-3 (Ref.eq)
01-01-2024,03:00,7.425,P,ugm-3 (FIDAS),6.62088,P,ugm-3,23.78181,P,ugm-3,33.93368,P,ugm-3,3.396,P,ugm-3 (Ref.eq)
01-01-2024,04:00,2.700,P,ugm-3 (FIDAS),1.46751,P,ugm-3,3.61688,P,ugm-3,5.86704,P,ugm-3,0.920,P,ugm-3 (Ref.eq)
01-01-2024,05:00,1.425,P,ugm-3 (FIDAS),1.39926,P,ugm-3,3.45726,P,ugm-3,5.60276,P,ugm-3,0.613,P,ugm-3 (Ref.eq)
01-01-2024,06:00,1.325,P,ugm-3 (FIDAS),2.42310,P,ugm-3,5.16447,P,ugm-3,8.87984,P,ugm-3,0.566,P,ugm-3 (Ref.eq)
01-01-2024,07:00,2.875,P,ugm-3 (FIDAS),1.56990,P,ugm-3,3.72418,P,ugm-3,6.13132,P,ugm-3,1.203,P,ugm-3 (Ref.eq)
01-01-2024,08:00,8.250,P,ugm-3 (FIDAS),2.96916,P,ugm-3,7.92142,P,ugm-3,12.47406,P,ugm-3,2.877,P,ugm-3 (Ref.eq)
01-01-2024,09:00,9.625,P,ugm-3 (FIDAS),2.83264,P,ugm-3,5.85792,P,ugm-3,10.20125,P,ugm-3,3.868,P,ugm-3 (Ref.eq)
01-01-2024,10:00,6.650,P,ugm-3 (FIDAS),1.84292,P,ugm-3,2.24842,P,ugm-3,5.07420,P,ugm-3,2.429,P,ugm-3 (Ref.eq)
01-01-2024,11:00,6.650,P,ugm-3 (FIDAS),3.07154,P,ugm-3,4.17021,P,ugm-3,8.87984,P,ugm-3,2.005,P,ugm-3 (Ref.eq)
01-01-2024,12:00,4.750,P,ugm-3 (FIDAS),3.68585,P,ugm-3,5.50110,P,ugm-3,11.15266,P,ugm-3,1.486,P,ugm-3 (Ref.eq)
01-01-2024,13:00,7.525,P,ugm-3 (FIDAS),7.33757,P,ugm-3,10.10312,P,ugm-3,21.35390,P,ugm-3,1.910,P,ugm-3 (Ref.eq)
01-01-2024,14:00,8.650,P,ugm-3 (FIDAS),11.74011,P,ugm-3,22.16946,P,ugm-3,40.17071,P,ugm-3,2.382,P,ugm-3 (Ref.eq)
01-01-2024,15:00,9.575,P,ugm-3 (FIDAS),18.63401,P,ugm-3,34.90855,P,ugm-3,63.48030,P,ugm-3,2.759,P,ugm-3 (Ref.eq)
01-01-2024,16:00,7.125,P,ugm-3 (FIDAS),7.37170,P,ugm-3,15.38927,P,ugm-3,26.69238,P,ugm-3,3.019,P,ugm-3 (Ref.eq)
01-01-2024,17:00,7.850,P,ugm-3 (FIDAS),5.90418,P,ugm-3,12.08953,P,ugm-3,21.14248,P,ugm-3,3.585,P,ugm-3 (Ref.eq)
01-01-2024,18:00,7.800,P,ugm-3 (FIDAS),8.25903,P,ugm-3,21.53429,P,ugm-3,34.19796,P,ugm-3,3.514,P,ugm-3 (Ref.eq)
01-01-2024,19:00,7.075,P,ugm-3 (FIDAS),8.15665,P,ugm-3,31.89253,P,ugm-3,44.39921,P,ugm-3,3.703,P,ugm-3 (Ref.eq)
01-01-2024,20:00,6.150,P,ugm-3 (FIDAS),4.09539,P,ugm-3,17.08294,P,ugm-3,23.36244,P,ugm-3,3.349,P,ugm-3 (Ref.eq)
01-01-2024,21:00,5.500,P,ugm-3 (FIDAS),3.00328,P,ugm-3,9.77192,P,ugm-3,14.37689,P,ugm-3,3.019,P,ugm-3 (Ref.eq)
01-01-2024,22:00,7.625,P,ugm-3 (FIDAS),1.29687,P,ugm-3,5.35850,P,ugm-3,7.34701,P,ugm-3,4.575,P,ugm-3 (Ref.eq)
01-01-2024,23:00,11.975,P,ugm-3 (FIDAS),1.16036,P,ugm-3,5.77924,P,ugm-3,7.55844,P,ugm-3,8.467,P,ugm-3 (Ref.eq)
01-01-2024,24:00,6.150,P,ugm-3 (FIDAS),1.02385,P,ugm-3,3.82146,P,ugm-3,5.39133,P,ugm-3,3.420,P,ugm-3 (Ref.eq)
02-01-2024,01:00,4.000,P,ugm-3 (FIDAS),0.72840,P,ugm-3,2.54881,P,ugm-3,3.66567,P,ugm-3,2.264,P,ugm-3 (Ref.eq)
02-01-2024,02:00,2.375,P,ugm-3 (FIDAS),0.54630,P,ugm-3,2.96901,P,ugm-3,3.80666,P,ugm-3,1.392,P,ugm-3 (Ref.eq)
02-01-2024,03:00,2.300,P,ugm-3 (FIDAS),0.58044,P,ugm-3,3.76258,P,ugm-3,4.65258,P,ugm-3,1.132,P,ugm-3 (Ref.eq)
02-01-2024,04:00,1.575,P,ugm-3 (FIDAS),0.20486,P,ugm-3,3.49254,P,ugm-3,3.80666,P,ugm-3,0.873,P,ugm-3 (Ref.eq)
02-01-2024,05:00,0.925,P,ugm-3 (FIDAS),0.44387,P,ugm-3,3.60190,P,ugm-3,4.28249,P,ugm-3,0.660,P,ugm-3 (Ref.eq)
02-01-2024,06:00,1.225,P,ugm-3 (FIDAS),1.91205,P,ugm-3,7.21932,P,ugm-3,10.15109,P,ugm-3,0.613,P,ugm-3 (Ref.eq)
02-01-2024,07:00,1.950,P,ugm-3 (FIDAS),2.69735,P,ugm-3,11.88381,P,ugm-3,16.01969,P,ugm-3,0.825,P,ugm-3 (Ref.eq)
02-01-2024,08:00,2.575,P,ugm-3 (FIDAS),5.15570,P,ugm-3,20.22168,P,ugm-3,28.12698,P,ugm-3,1.061,P,ugm-3 (Ref.eq)
02-01-2024,09:00,2.925,P,ugm-3 (FIDAS),4.81426,P,ugm-3,16.88568,P,ugm-3,24.26745,P,ugm-3,1.321,P,ugm-3 (Ref.eq)
02-01-2024,10:00,2.875,P,ugm-3 (FIDAS),10.37969,P,ugm-3,25.53499,P,ugm-3,41.45028,P,ugm-3,1.910,P,ugm-3 (Ref.eq)
02-01-2024,11:00,3.600,P,ugm-3 (FIDAS),13.31604,P,ugm-3,29.22752,P,ugm-3,49.64517,P,ugm-3,2.028,P,ugm-3 (Ref.eq)
02-01-2024,12:00,5.000,P,ugm-3 (FIDAS),21.23738,P,ugm-3,34.10586,P,ugm-3,66.66939,P,ugm-3,2.712,P,ugm-3 (Ref.eq)
02-01-2024,13:00,5.375,P,ugm-3 (FIDAS),18.09616,P,ugm-3,31.04466,P,ugm-3,58.79173,P,ugm-3,3.090,P,ugm-3 (Ref.eq)
02-01-2024,14:00,6.350,P,ugm-3 (FIDAS),33.49497,P,ugm-3,49.41247,P,ugm-3,100.77071,P,ugm-3,3.868,P,ugm-3 (Ref.eq)
02-01-2024,15:00,7.900,P,ugm-3 (FIDAS),28.40756,P,ugm-3,42.35651,P,ugm-3,85.91417,P,ugm-3,5.259,P,ugm-3 (Ref.eq)
02-01-2024,16:00,8.650,P,ugm-3 (FIDAS),38.71896,P,ugm-3,48.53995,P,ugm-3,107.90819,P,ugm-3,5.047,P,ugm-3 (Ref.eq)
02-01-2024,17:00,11.850,P,ugm-3 (FIDAS),27.41739,P,ugm-3,40.01522,P,ugm-3,82.05464,P,ugm-3,7.547,P,ugm-3 (Ref.eq)
02-01-2024,18:00,13.225,P,ugm-3 (FIDAS),29.12458,P,ugm-3,39.56526,P,ugm-3,84.22232,P,ugm-3,9.434,P,ugm-3 (Ref.eq)
02-01-2024,19:00,13.100,P,ugm-3 (FIDAS),17.68644,P,ugm-3,38.54603,P,ugm-3,65.66486,P,ugm-3,10.047,P,ugm-3 (Ref.eq)
02-01-2024,20:00,14.950,P,ugm-3 (FIDAS),21.30567,P,ugm-3,42.83049,P,ugm-3,75.49872,P,ugm-3,11.627,P,ugm-3 (Ref.eq)
02-01-2024,21:00,16.525,P,ugm-3 (FIDAS),27.14424,P,ugm-3,50.00356,P,ugm-3,91.62415,P,ugm-3,13.349,P,ugm-3 (Ref.eq)
02-01-2024,22:00,15.300,P,ugm-3 (FIDAS),27.99784,P,ugm-3,47.42585,P,ugm-3,90.35527,P,ugm-3,12.877,P,ugm-3 (Ref.eq)
02-01-2024,23:00,14.425,P,ugm-3 (FIDAS),18.98390,P,ugm-3,45.43882,P,ugm-3,74.54706,P,ugm-3,12.241,P,ugm-3 (Ref.eq)
02-01-2024,24:00,9.750,P,ugm-3 (FIDAS),9.93582,P,ugm-3,38.74582,P,ugm-3,53.98053,P,ugm-3,7.877,P,ugm-3 (Ref.eq)
03-01-2024,01:00,3.900,P,ugm-3 (FIDAS),2.36837,P,ugm-3,17.94535,P,ugm-3,21.57680,P,ugm-3,2.453,P,ugm-3 (Ref.eq)
03-01-2024,02:00,2.800,P,ugm-3 (FIDAS),1.68519,P,ugm-3,5.10194,P,ugm-3,7.68585,P,ugm-3,1.321,P,ugm-3 (Ref.eq)
03-01-2024,03:00,2.325,P,ugm-3 (FIDAS),1.67380,P,ugm-3,5.73638,P,ugm-3,8.30284,P,ugm-3,1.203,P,ugm-3 (Ref.eq)
03-01-2024,04:00,1.825,P,ugm-3 (FIDAS),1.02478,P,ugm-3,2.92387,P,ugm-3,4.49517,P,ugm-3,1.038,P,ugm-3 (Ref.eq)
03-01-2024,05:00,2.500,P,ugm-3 (FIDAS),1.12725,P,ugm-3,9.58881,P,ugm-3,11.31724,P,ugm-3,1.415,P,ugm-3 (Ref.eq)
03-01-2024,06:00,3.300,P,ugm-3 (FIDAS),5.36299,P,ugm-3,15.36326,P,ugm-3,23.58640,P,ugm-3,1.981,P,ugm-3 (Ref.eq)
03-01-2024,07:00,5.100,P,ugm-3 (FIDAS),11.98987,P,ugm-3,33.65395,P,ugm-3,52.03816,P,ugm-3,2.783,P,ugm-3 (Ref.eq)
03-01-2024,08:00,6.925,P,ugm-3 (FIDAS),26.13177,P,ugm-3,40.05157,P,ugm-3,80.11973,P,ugm-3,3.208,P,ugm-3 (Ref.eq)
03-01-2024,09:00,5.425,P,ugm-3 (FIDAS),19.47073,P,ugm-3,26.09689,P,ugm-3,55.95160,P,ugm-3,2.500,P,ugm-3 (Ref.eq)
03-01-2024,10:00,7.925,P,ugm-3 (FIDAS),17.38702,P,ugm-3,27.49381,P,ugm-3,54.15353,P,ugm-3,3.868,P,ugm-3 (Ref.eq)
03-01-2024,11:00,8.275,P,ugm-3 (FIDAS),30.26503,P,ugm-3,35.77648,P,ugm-3,82.18222,P,ugm-3,4.104,P,ugm-3 (Ref.eq)
03-01-2024,12:00,6.150,P,ugm-3 (FIDAS),26.43921,P,ugm-3,33.02253,P,ugm-3,73.56208,P,ugm-3,3.042,P,ugm-3 (Ref.eq)
03-01-2024,13:00,5.125,P,ugm-3 (FIDAS),32.79281,P,ugm-3,38.03519,P,ugm-3,88.31680,P,ugm-3,2.406,P,ugm-3 (Ref.eq)
03-01-2024,14:00,3.075,P,ugm-3 (FIDAS),27.39566,P,ugm-3,34.62327,P,ugm-3,76.62937,P,ugm-3,1.580,P,ugm-3 (Ref.eq)
03-01-2024,15:00,4.100,P,ugm-3 (FIDAS),24.32134,P,ugm-3,38.49102,P,ugm-3,75.78322,P,ugm-3,1.816,P,ugm-3 (Ref.eq)
03-01-2024,16:00,4.800,P,ugm-3 (FIDAS),29.92344,P,ugm-3,43.75694,P,ugm-3,89.63891,P,ugm-3,2.311,P,ugm-3 (Ref.eq)
03-01-2024,17:00,7.125,P,ugm-3 (FIDAS),15.98650,P,ugm-3,26.57396,P,ugm-3,51.08625,P,ugm-3,2.972,P,ugm-3 (Ref.eq)
03-01-2024,18:00,9.250,P,ugm-3 (FIDAS),16.08897,P,ugm-3,26.04664,P,ugm-3,50.71605,P,ugm-3,3.774,P,ugm-3 (Ref.eq)
03-01-2024,19:00,8.125,P,ugm-3 (FIDAS),15.20084,P,ugm-3,20.48059,P,ugm-3,43.78821,P,ugm-3,3.892,P,ugm-3 (Ref.eq)
03-01-2024,20:00,8.800,P,ugm-3 (FIDAS),10.96510,P,ugm-3,17.35035,P,ugm-3,34.16327,P,ugm-3,4.127,P,ugm-3 (Ref.eq)
03-01-2024,21:00,8.975,P,ugm-3 (FIDAS),7.13927,P,ugm-3,13.80313,P,ugm-3,24.74986,P,ugm-3,4.151,P,ugm-3 (Ref.eq)
03-01-2024,22:00,5.900,P,ugm-3 (FIDAS),6.52440,P,ugm-3,15.11610,P,ugm-3,25.12005,P,ugm-3,3.278,P,ugm-3 (Ref.eq)
03-01-2024,23:00,8.475,P,ugm-3 (FIDAS),4.37238,P,ugm-3,10.58895,P,ugm-3,17.29317,P,ugm-3,4.127,P,ugm-3 (Ref.eq)
03-01-2024,24:00,8.750,P,ugm-3 (FIDAS),2.97185,P,ugm-3,6.39028,P,ugm-3,10.94705,P,ugm-3,4.104,P,ugm-3 (Ref.eq)
04-01-2024,01:00,8.525,P,ugm-3 (FIDAS),1.82265,P,ugm-3,4.61108,P,ugm-3,7.40577,P,ugm-3,3.915,P,ugm-3 (Ref.eq)
04-01-2024,02:00,6.750,P,ugm-3 (FIDAS),1.91378,P,ugm-3,2.99019,P,ugm-3,5.92462,P,ugm-3,3.420,P,ugm-3 (Ref.eq)
04-01-2024,03:00,5.550,P,ugm-3 (FIDAS),0.88854,P,ugm-3,2.02309,P,ugm-3,3.38550,P,ugm-3,2.830,P,ugm-3 (Ref.eq)
04-01-2024,04:00,4.375,P,ugm-3 (FIDAS),1.40116,P,ugm-3,2.08345,P,ugm-3,4.23187,P,ugm-3,2.311,P,ugm-3 (Ref.eq)
04-01-2024,05:00,4.500,P,ugm-3 (FIDAS),2.49475,P,ugm-3,3.26315,P,ugm-3,7.08838,P,ugm-3,2.359,P,ugm-3 (Ref.eq)
04-01-2024,06:00,4.300,P,ugm-3 (FIDAS),7.00581,P,ugm-3,9.46509,P,ugm-3,20.20718,P,ugm-3,2.524,P,ugm-3 (Ref.eq)
04-01-2024,07:00,3.750,P,ugm-3 (FIDAS),15.78869,P,ugm-3,15.51768,P,ugm-3,39.72667,P,ugm-3,2.264,P,ugm-3 (Ref.eq)
04-01-2024,08:00,3.500,P,ugm-3 (FIDAS),18.96694,P,ugm-3,22.91687,P,ugm-3,51.99909,P,ugm-3,1.698,P,ugm-3 (Ref.eq)
04-01-2024,09:00,2.800,P,ugm-3 (FIDAS),15.44695,P,ugm-3,25.03441,P,ugm-3,48.71939,P,ugm-3,1.368,P,ugm-3 (Ref.eq)
04-01-2024,10:00,4.250,P,ugm-3 (FIDAS),23.13624,P,ugm-3,34.77395,P,ugm-3,70.24903,P,ugm-3,1.934,P,ugm-3 (Ref.eq)
04-01-2024,11:00,4.975,P,ugm-3 (FIDAS),44.90550,P,ugm-3,58.31353,P,ugm-3,127.16767,P,ugm-3,2.712,P,ugm-3 (Ref.eq)
04-01-2024,12:00,4.975,P,ugm-3 (FIDAS),29.76613,P,ugm-3,36.45751,P,ugm-3,82.09826,P,ugm-3,2.453,P,ugm-3 (Ref.eq)
04-01-2024,13:00,6.750,P,ugm-3 (FIDAS),41.24881,P,ugm-3,48.84434,P,ugm-3,112.09164,P,ugm-3,2.877,P,ugm-3 (Ref.eq)
04-01-2024,14:00,4.500,P,ugm-3 (FIDAS),22.52110,P,ugm-3,35.98165,P,ugm-3,70.51352,P,ugm-3,2.217,P,ugm-3 (Ref.eq)
04-01-2024,15:00,4.850,P,ugm-3 (FIDAS),22.69197,P,ugm-3,38.25877,P,ugm-3,73.05264,P,ugm-3,2.453,P,ugm-3 (Ref.eq)
04-01-2024,16:00,4.925,P,ugm-3 (FIDAS),26.21196,P,ugm-3,46.77380,P,ugm-3,86.96491,P,ugm-3,2.642,P,ugm-3 (Ref.eq)
04-01-2024,17:00,5.050,P,ugm-3 (FIDAS),36.77193,P,ugm-3,50.78925,P,ugm-3,107.17209,P,ugm-3,2.618,P,ugm-3 (Ref.eq)
04-01-2024,18:00,6.125,P,ugm-3 (FIDAS),69.03281,P,ugm-3,69.82664,P,ugm-3,175.67547,P,ugm-3,3.656,P,ugm-3 (Ref.eq)
04-01-2024,19:00,6.150,P,ugm-3 (FIDAS),18.11257,P,ugm-3,38.87972,P,ugm-3,66.65194,P,ugm-3,3.302,P,ugm-3 (Ref.eq)
04-01-2024,20:00,8.300,P,ugm-3 (FIDAS),24.33236,P,ugm-3,51.61306,P,ugm-3,88.92215,P,ugm-3,5.330,P,ugm-3 (Ref.eq)
04-01-2024,21:00,8.450,P,ugm-3 (FIDAS),19.51373,P,ugm-3,46.04142,P,ugm-3,75.96205,P,ugm-3,5.684,P,ugm-3 (Ref.eq)
04-01-2024,22:00,5.825,P,ugm-3 (FIDAS),12.26870,P,ugm-3,34.82720,P,ugm-3,53.63894,P,ugm-3,3.656,P,ugm-3 (Ref.eq)
04-01-2024,23:00,4.625,P,ugm-3 (FIDAS),6.69823,P,ugm-3,34.32284,P,ugm-3,44.59332,P,ugm-3,2.901,P,ugm-3 (Ref.eq)
04-01-2024,24:00,4.375,P,ugm-3 (FIDAS),4.61358,P,ugm-3,22.70773,P,ugm-3,29.78178,P,ugm-3,2.712,P,ugm-3 (Ref.eq)
05-01-2024,01:00,3.925,P,ugm-3 (FIDAS),1.32202,P,ugm-3,11.09521,P,ugm-3,13.12228,P,ugm-3,2.382,P,ugm-3 (Ref.eq)
05-01-2024,02:00,3.600,P,ugm-3 (FIDAS),0.77498,P,ugm-3,10.59355,P,ugm-3,11.78183,P,ugm-3,2.500,P,ugm-3 (Ref.eq)
05-01-2024,03:00,4.450,P,ugm-3 (FIDAS),1.12828,P,ugm-3,8.58793,P,ugm-3,10.31792,P,ugm-3,3.443,P,ugm-3 (Ref.eq)
05-01-2024,04:00,2.400,P,ugm-3 (FIDAS),1.23084,P,ugm-3,5.46756,P,ugm-3,7.35483,P,ugm-3,1.250,P,ugm-3 (Ref.eq)
05-01-2024,05:00,2.000,P,ugm-3 (FIDAS),2.15398,P,ugm-3,9.29044,P,ugm-3,12.59316,P,ugm-3,0.896,P,ugm-3 (Ref.eq)
05-01-2024,06:00,3.150,P,ugm-3 (FIDAS),9.09458,P,ugm-3,21.29485,P,ugm-3,35.23967,P,ugm-3,1.769,P,ugm-3 (Ref.eq)
05-01-2024,07:00,4.800,P,ugm-3 (FIDAS),22.70225,P,ugm-3,35.35224,P,ugm-3,70.16187,P,ugm-3,2.783,P,ugm-3 (Ref.eq)
05-01-2024,08:00,5.100,P,ugm-3 (FIDAS),48.51580,P,ugm-3,46.46211,P,ugm-3,120.85197,P,ugm-3,2.783,P,ugm-3 (Ref.eq)
05-01-2024,09:00,6.050,P,ugm-3 (FIDAS),26.87345,P,ugm-3,33.66570,P,ugm-3,74.87108,P,ugm-3,2.311,P,ugm-3 (Ref.eq)
05-01-2024,10:00,6.500,P,ugm-3 (FIDAS),33.60890,P,ugm-3,44.45020,P,ugm-3,95.98313,P,ugm-3,2.759,P,ugm-3 (Ref.eq)
05-01-2024,11:00,9.000,P,ugm-3 (FIDAS),50.53302,P,ugm-3,52.62876,P,ugm-3,130.11164,P,ugm-3,3.915,P,ugm-3 (Ref.eq)
05-01-2024,12:00,9.650,P,ugm-3 (FIDAS),54.70422,P,ugm-3,54.54026,P,ugm-3,138.41889,P,ugm-3,4.033,P,ugm-3 (Ref.eq)
05-01-2024,13:00,8.350,P,ugm-3 (FIDAS),32.61739,P,ugm-3,44.85934,P,ugm-3,94.87197,P,ugm-3,3.585,P,ugm-3 (Ref.eq)
05-01-2024,14:00,7.300,P,ugm-3 (FIDAS),19.35162,P,ugm-3,33.13498,P,ugm-3,62.80704,P,ugm-3,3.609,P,ugm-3 (Ref.eq)
05-01-2024,15:00,9.700,P,ugm-3 (FIDAS),26.94183,P,ugm-3,43.61421,P,ugm-3,84.92444,P,ugm-3,4.198,P,ugm-3 (Ref.eq)
05-01-2024,16:00,10.400,P,ugm-3 (FIDAS),35.83126,P,ugm-3,53.00084,P,ugm-3,107.94134,P,ugm-3,5.731,P,ugm-3 (Ref.eq)
05-01-2024,17:00,9.550,P,ugm-3 (FIDAS),15.41975,P,ugm-3,45.35451,P,ugm-3,68.99780,P,ugm-3,4.198,P,ugm-3 (Ref.eq)
05-01-2024,18:00,9.275,P,ugm-3 (FIDAS),17.67630,P,ugm-3,50.73089,P,ugm-3,77.83417,P,ugm-3,4.646,P,ugm-3 (Ref.eq)
05-01-2024,19:00,10.025,P,ugm-3 (FIDAS),11.93236,P,ugm-3,43.98189,P,ugm-3,62.27792,P,ugm-3,5.236,P,ugm-3 (Ref.eq)
05-01-2024,20:00,10.775,P,ugm-3 (FIDAS),18.32591,P,ugm-3,49.89357,P,ugm-3,77.99291,P,ugm-3,5.802,P,ugm-3 (Ref.eq)
05-01-2024,21:00,7.475,P,ugm-3 (FIDAS),11.76141,P,ugm-3,22.86740,P,ugm-3,40.90130,P,ugm-3,3.396,P,ugm-3 (Ref.eq)
05-01-2024,22:00,6.600,P,ugm-3 (FIDAS),18.97553,P,ugm-3,28.31458,P,ugm-3,57.40998,P,ugm-3,3.042,P,ugm-3 (Ref.eq)
05-01-2024,23:00,5.400,P,ugm-3 (FIDAS),8.68430,P,ugm-3,19.22541,P,ugm-3,32.54114,P,ugm-3,2.382,P,ugm-3 (Ref.eq)
05-01-2024,24:00,5.400,P,ugm-3 (FIDAS),5.98327,P,ugm-3,20.13926,P,ugm-3,29.31348,P,ugm-3,2.500,P,ugm-3 (Ref.eq)
06-01-2024,01:00,4.250,P,ugm-3 (FIDAS),0.91215,P,ugm-3,15.25559,P,ugm-3,16.65420,P,ugm-3,2.005,P,ugm-3 (Ref.eq)
06-01-2024,02:00,4.250,P,ugm-3 (FIDAS),2.18916,P,ugm-3,20.07212,P,ugm-3,23.42879,P,ugm-3,2.028,P,ugm-3 (Ref.eq)
06-01-2024,03:00,5.325,P,ugm-3 (FIDAS),1.91552,P,ugm-3,17.59839,P,ugm-3,20.53547,P,ugm-3,2.665,P,ugm-3 (Ref.eq)
06-01-2024,04:00,4.875,P,ugm-3 (FIDAS),1.12879,P,ugm-3,13.93546,P,ugm-3,15.66624,P,ugm-3,2.193,P,ugm-3 (Ref.eq)
06-01-2024,05:00,5.925,P,ugm-3 (FIDAS),3.07851,P,ugm-3,11.15763,P,ugm-3,15.87794,P,ugm-3,2.429,P,ugm-3 (Ref.eq)
06-01-2024,06:00,5.550,P,ugm-3 (FIDAS),10.09066,P,ugm-3,19.82984,P,ugm-3,35.30196,P,ugm-3,2.406,P,ugm-3 (Ref.eq)
06-01-2024,07:00,5.600,P,ugm-3 (FIDAS),13.37440,P,ugm-3,31.41375,P,ugm-3,51.92087,P,ugm-3,2.382,P,ugm-3 (Ref.eq)
06-01-2024,08:00,4.775,P,ugm-3 (FIDAS),11.21944,P,ugm-3,39.37550,P,ugm-3,56.57840,P,ugm-3,2.241,P,ugm-3 (Ref.eq)
06-01-2024,09:00,5.825,P,ugm-3 (FIDAS),28.35646,P,ugm-3,45.43719,P,ugm-3,88.91648,P,ugm-3,2.500,P,ugm-3 (Ref.eq)
06-01-2024,10:00,6.600,P,ugm-3 (FIDAS),18.60786,P,ugm-3,41.27838,P,ugm-3,69.81002,P,ugm-3,2.948,P,ugm-3 (Ref.eq)
06-01-2024,11:00,7.900,P,ugm-3 (FIDAS),47.75104,P,ugm-3,44.59710,P,ugm-3,117.81434,P,ugm-3,3.443,P,ugm-3 (Ref.eq)
06-01-2024,12:00,10.000,P,ugm-3 (FIDAS),48.74300,P,ugm-3,45.03439,P,ugm-3,119.77262,P,ugm-3,3.774,P,ugm-3 (Ref.eq)
06-01-2024,13:00,11.275,P,ugm-3 (FIDAS),43.61216,P,ugm-3,55.23034,P,ugm-3,122.10138,P,ugm-3,3.750,P,ugm-3 (Ref.eq)
06-01-2024,14:00,8.375,P,ugm-3 (FIDAS),33.31627,P,ugm-3,49.42314,P,ugm-3,100.50738,P,ugm-3,2.995,P,ugm-3 (Ref.eq)
06-01-2024,15:00,7.175,P,ugm-3 (FIDAS),29.82730,P,ugm-3,42.38803,P,ugm-3,88.12258,P,ugm-3,2.807,P,ugm-3 (Ref.eq)
06-01-2024,16:00,6.975,P,ugm-3 (FIDAS),20.89963,P,ugm-3,39.51094,P,ugm-3,71.55660,P,ugm-3,3.019,P,ugm-3 (Ref.eq)
06-01-2024,17:00,6.850,P,ugm-3 (FIDAS),26.50935,P,ugm-3,52.45057,P,ugm-3,93.09767,P,ugm-3,4.127,P,ugm-3 (Ref.eq)
06-01-2024,18:00,8.875,P,ugm-3 (FIDAS),17.00019,P,ugm-3,46.49560,P,ugm-3,72.56220,P,ugm-3,6.038,P,ugm-3 (Ref.eq)
06-01-2024,19:00,8.400,P,ugm-3 (FIDAS),37.69459,P,ugm-3,53.55974,P,ugm-3,111.35731,P,ugm-3,4.575,P,ugm-3 (Ref.eq)
06-01-2024,20:00,5.950,P,ugm-3 (FIDAS),13.61384,P,ugm-3,38.66803,P,ugm-3,59.54229,P,ugm-3,3.255,P,ugm-3 (Ref.eq)
06-01-2024,21:00,5.700,P,ugm-3 (FIDAS),19.77085,P,ugm-3,34.89055,P,ugm-3,65.20542,P,ugm-3,3.160,P,ugm-3 (Ref.eq)
06-01-2024,22:00,5.100,P,ugm-3 (FIDAS),14.02430,P,ugm-3,33.01064,P,ugm-3,54.51427,P,ugm-3,2.712,P,ugm-3 (Ref.eq)
06-01-2024,23:00,7.275,P,ugm-3 (FIDAS),4.72037,P,ugm-3,30.65755,P,ugm-3,37.89536,P,ugm-3,5.000,P,ugm-3 (Ref.eq)
06-01-2024,24:00,5.900,P,ugm-3 (FIDAS),6.87533,P,ugm-3,30.68770,P,ugm-3,41.22973,P,ugm-3,3.915,P,ugm-3 (Ref.eq)
07-01-2024,01:00,6.125,P,ugm-3 (FIDAS),7.07236,P,ugm-3,26.56718,P,ugm-3,37.41131,P,ugm-3,4.670,P,ugm-3 (Ref.eq)
07-01-2024,02:00,4.300,P,ugm-3 (FIDAS),7.07236,P,ugm-3,19.08491,P,ugm-3,29.92905,P,ugm-3,2.736,P,ugm-3 (Ref.eq)
07-01-2024,03:00,4.550,P,ugm-3 (FIDAS),1.57417,P,ugm-3,15.74491,P,ugm-3,18.15860,P,ugm-3,3.467,P,ugm-3 (Ref.eq)
07-01-2024,04:00,4.500,P,ugm-3 (FIDAS),2.42970,P,ugm-3,13.21549,P,ugm-3,16.94097,P,ugm-3,3.656,P,ugm-3 (Ref.eq)
07-01-2024,05:00,4.750,P,ugm-3 (FIDAS),10.09522,P,ugm-3,23.32628,P,ugm-3,38.80541,P,ugm-3,3.892,P,ugm-3 (Ref.eq)
07-01-2024,06:00,5.600,P,ugm-3 (FIDAS),5.61226,P,ugm-3,30.14713,P,ugm-3,38.75247,P,ugm-3,4.292,P,ugm-3 (Ref.eq)
07-01-2024,07:00,8.275,P,ugm-3 (FIDAS),12.73025,P,ugm-3,31.93876,P,ugm-3,51.45820,P,ugm-3,4.906,P,ugm-3 (Ref.eq)
07-01-2024,08:00,8.025,P,ugm-3 (FIDAS),27.54798,P,ugm-3,38.44172,P,ugm-3,80.68137,P,ugm-3,5.637,P,ugm-3 (Ref.eq)
07-01-2024,09:00,8.050,P,ugm-3 (FIDAS),23.30456,P,ugm-3,38.06593,P,ugm-3,73.79910,P,ugm-3,5.118,P,ugm-3 (Ref.eq)
07-01-2024,10:00,7.725,P,ugm-3 (FIDAS),33.67356,P,ugm-3,39.63741,P,ugm-3,91.26948,P,ugm-3,5.401,P,ugm-3 (Ref.eq)
07-01-2024,11:00,9.600,P,ugm-3 (FIDAS),48.59395,P,ugm-3,42.91241,P,ugm-3,117.42210,P,ugm-3,5.684,P,ugm-3 (Ref.eq)
07-01-2024,12:00,8.725,P,ugm-3 (FIDAS),55.67772,P,ugm-3,43.00948,P,ugm-3,128.38079,P,ugm-3,5.708,P,ugm-3 (Ref.eq)
07-01-2024,13:00,8.550,P,ugm-3 (FIDAS),60.53712,P,ugm-3,46.35838,P,ugm-3,139.18066,P,ugm-3,6.109,P,ugm-3 (Ref.eq)
07-01-2024,14:00,9.825,P,ugm-3 (FIDAS),68.61329,P,ugm-3,47.10433,P,ugm-3,152.30991,P,ugm-3,7.264,P,ugm-3 (Ref.eq)
07-01-2024,15:00,11.025,P,ugm-3 (FIDAS),72.51450,P,ugm-3,53.98711,P,ugm-3,165.17446,P,ugm-3,8.679,P,ugm-3 (Ref.eq)
07-01-2024,16:00,12.175,P,ugm-3 (FIDAS),81.10399,P,ugm-3,55.85185,P,ugm-3,180.20957,P,ugm-3,9.528,P,ugm-3 (Ref.eq)
07-01-2024,17:00,13.850,P,ugm-3 (FIDAS),93.97112,P,ugm-3,58.83401,P,ugm-3,202.92106,P,ugm-3,10.024,P,ugm-3 (Ref.eq)
07-01-2024,18:00,13.825,P,ugm-3 (FIDAS),72.30917,P,ugm-3,53.98430,P,ugm-3,164.85682,P,ugm-3,10.849,P,ugm-3 (Ref.eq)
07-01-2024,19:00,15.200,P,ugm-3 (FIDAS),73.40425,P,ugm-3,50.24053,P,ugm-3,162.79214,P,ugm-3,11.557,P,ugm-3 (Ref.eq)
07-01-2024,20:00,15.350,P,ugm-3 (FIDAS),80.07736,P,ugm-3,51.92018,P,ugm-3,174.70376,P,ugm-3,12.052,P,ugm-3 (Ref.eq)
07-01-2024,21:00,13.925,P,ugm-3 (FIDAS),51.43430,P,ugm-3,44.53955,P,ugm-3,123.40438,P,ugm-3,11.604,P,ugm-3 (Ref.eq)
07-01-2024,22:00,14.900,P,ugm-3 (FIDAS),46.67757,P,ugm-3,40.39795,P,ugm-3,111.96923,P,ugm-3,12.382,P,ugm-3 (Ref.eq)
07-01-2024,23:00,13.600,P,ugm-3 (FIDAS),26.93200,P,ugm-3,36.31566,P,ugm-3,77.61082,P,ugm-3,11.344,P,ugm-3 (Ref.eq)
07-01-2024,24:00,10.750,P,ugm-3 (FIDAS),17.21321,P,ugm-3,33.27076,P,ugm-3,59.66398,P,ugm-3,9.434,P,ugm-3 (Ref.eq)
08-01-2024,01:00,15.050,P,ugm-3 (FIDAS),32.36497,P,ugm-3,37.29053,P,ugm-3,86.91613,P,ugm-3,13.090,P,ugm-3 (Ref.eq)
08-01-2024,02:00,10.875,P,ugm-3 (FIDAS),14.79020,P,ugm-3,35.85448,P,ugm-3,58.53247,P,ugm-3,9.599,P,ugm-3 (Ref.eq)
08-01-2024,03:00,7.350,P,ugm-3 (FIDAS),4.62194,P,ugm-3,31.09339,P,ugm-3,38.18026,P,ugm-3,6.557,P,ugm-3 (Ref.eq)
08-01-2024,04:00,5.650,P,ugm-3 (FIDAS),2.29385,P,ugm-3,21.84806,P,ugm-3,25.36525,P,ugm-3,4.623,P,ugm-3 (Ref.eq)
08-01-2024,05:00,4.525,P,ugm-3 (FIDAS),2.22538,P,ugm-3,10.51486,P,ugm-3,13.92706,P,ugm-3,2.925,P,ugm-3 (Ref.eq)
08-01-2024,06:00,6.075,P,ugm-3 (FIDAS),4.58770,P,ugm-3,16.05382,P,ugm-3,23.08820,P,ugm-3,2.948,P,ugm-3 (Ref.eq)
08-01-2024,07:00,11.225,P,ugm-3 (FIDAS),18.76164,P,ugm-3,33.93078,P,ugm-3,62.69823,P,ugm-3,4.906,P,ugm-3 (Ref.eq)
08-01-2024,08:00,15.050,P,ugm-3 (FIDAS),54.81275,P,ugm-3,53.10733,P,ugm-3,137.15238,P,ugm-3,6.533,P,ugm-3 (Ref.eq)
08-01-2024,09:00,16.225,P,ugm-3 (FIDAS),58.44183,P,ugm-3,54.95647,P,ugm-3,144.56602,P,ugm-3,6.675,P,ugm-3 (Ref.eq)
08-01-2024,10:00,12.600,P,ugm-3 (FIDAS),51.86841,P,ugm-3,56.40398,P,ugm-3,135.93443,P,ugm-3,5.425,P,ugm-3 (Ref.eq)
08-01-2024,11:00,13.325,P,ugm-3 (FIDAS),60.90686,P,ugm-3,58.53749,P,ugm-3,151.92671,P,ugm-3,5.684,P,ugm-3 (Ref.eq)
08-01-2024,12:00,13.050,P,ugm-3 (FIDAS),54.23073,P,ugm-3,55.27066,P,ugm-3,138.42329,P,ugm-3,5.943,P,ugm-3 (Ref.eq)
08-01-2024,13:00,20.900,P,ugm-3 (FIDAS),57.17508,P,ugm-3,57.42834,P,ugm-3,145.09557,P,ugm-3,14.222,P,ugm-3 (Ref.eq)
08-01-2024,14:00,9.250,P,ugm-3 (FIDAS),45.74006,P,ugm-3,54.15063,P,ugm-3,124.28442,P,ugm-3,4.340,P,ugm-3 (Ref.eq)
08-01-2024,15:00,9.525,P,ugm-3 (FIDAS),50.60165,P,ugm-3,52.57425,P,ugm-3,130.16238,P,ugm-3,5.071,P,ugm-3 (Ref.eq)
08-01-2024,16:00,10.500,P,ugm-3 (FIDAS),47.07529,P,ugm-3,50.77945,P,ugm-3,122.96055,P,ugm-3,5.708,P,ugm-3 (Ref.eq)
08-01-2024,17:00,9.525,P,ugm-3 (FIDAS),52.62161,P,ugm-3,53.81931,P,ugm-3,134.50465,P,ugm-3,5.849,P,ugm-3 (Ref.eq)
08-01-2024,18:00,7.875,P,ugm-3 (FIDAS),20.47347,P,ugm-3,31.78261,P,ugm-3,63.17482,P,ugm-3,5.425,P,ugm-3 (Ref.eq)
08-01-2024,19:00,8.250,P,ugm-3 (FIDAS),13.07837,P,ugm-3,34.43705,P,ugm-3,54.49027,P,ugm-3,6.297,P,ugm-3 (Ref.eq)
08-01-2024,20:00,9.375,P,ugm-3 (FIDAS),9.68895,P,ugm-3,32.37931,P,ugm-3,47.23549,P,ugm-3,6.958,P,ugm-3 (Ref.eq)
08-01-2024,21:00,7.050,P,ugm-3 (FIDAS),3.80026,P,ugm-3,20.96804,P,ugm-3,26.79502,P,ugm-3,4.623,P,ugm-3 (Ref.eq)
08-01-2024,22:00,7.600,P,ugm-3 (FIDAS),3.49213,P,ugm-3,21.12277,P,ugm-3,26.47730,P,ugm-3,4.575,P,ugm-3 (Ref.eq)
08-01-2024,23:00,6.425,P,ugm-3 (FIDAS),2.46503,P,ugm-3,15.81353,P,ugm-3,19.59320,P,ugm-3,4.222,P,ugm-3 (Ref.eq)
08-01-2024,24:00,5.375,P,ugm-3 (FIDAS),0.75321,P,ugm-3,9.59488,P,ugm-3,10.74978,P,ugm-3,3.231,P,ugm-3 (Ref.eq)
09-01-2024,01:00,4.575,P,ugm-3 (FIDAS),0.59370,P,ugm-3,4.73966,P,ugm-3,5.64999,P,ugm-3,2.830,P,ugm-3 (Ref.eq)
09-01-2024,02:00,4.650,P,ugm-3 (FIDAS),0.59370,P,ugm-3,4.17466,P,ugm-3,5.08499,P,ugm-3,2.807,P,ugm-3 (Ref.eq)
09-01-2024,03:00,5.125,P,ugm-3 (FIDAS),0.20551,P,ugm-3,3.97535,P,ugm-3,4.29046,P,ugm-3,2.854,P,ugm-3 (Ref.eq)
09-01-2024,04:00,5.225,P,ugm-3 (FIDAS),0.34252,P,ugm-3,6.51964,P,ugm-3,7.04483,P,ugm-3,2.995,P,ugm-3 (Ref.eq)
09-01-2024,05:00,6.150,P,ugm-3 (FIDAS),1.50709,P,ugm-3,9.13039,P,ugm-3,11.44123,P,ugm-3,3.726,P,ugm-3 (Ref.eq)
09-01-2024,06:00,5.950,P,ugm-3 (FIDAS),4.45277,P,ugm-3,12.02936,P,ugm-3,18.85684,P,ugm-3,3.609,P,ugm-3 (Ref.eq)
09-01-2024,07:00,6.350,P,ugm-3 (FIDAS),5.92561,P,ugm-3,17.08071,P,ugm-3,26.16651,P,ugm-3,3.774,P,ugm-3 (Ref.eq)
09-01-2024,08:00,5.500,P,ugm-3 (FIDAS),10.51538,P,ugm-3,15.60486,P,ugm-3,31.72822,P,ugm-3,3.420,P,ugm-3 (Ref.eq)
09-01-2024,09:00,4.875,P,ugm-3 (FIDAS),7.67246,P,ugm-3,13.97849,P,ugm-3,25.74276,P,ugm-3,3.090,P,ugm-3 (Ref.eq)
09-01-2024,10:00,4.825,P,ugm-3 (FIDAS),7.29569,P,ugm-3,13.49682,P,ugm-3,24.68339,P,ugm-3,2.925,P,ugm-3 (Ref.eq)
09-01-2024,11:00,5.325,P,ugm-3 (FIDAS),6.02836,P,ugm-3,12.47379,P,ugm-3,21.71714,P,ugm-3,3.278,P,ugm-3 (Ref.eq)
09-01-2024,12:00,5.950,P,ugm-3 (FIDAS),7.53545,P,ugm-3,13.71185,P,ugm-3,25.26604,P,ugm-3,3.491,P,ugm-3 (Ref.eq)
09-01-2024,13:00,4.975,P,ugm-3 (FIDAS),8.11774,P,ugm-3,14.51402,P,ugm-3,26.96104,P,ugm-3,3.231,P,ugm-3 (Ref.eq)
09-01-2024,14:00,4.975,P,ugm-3 (FIDAS),10.58388,P,ugm-3,17.93638,P,ugm-3,34.16477,P,ugm-3,3.396,P,ugm-3 (Ref.eq)
09-01-2024,15:00,5.725,P,ugm-3 (FIDAS),8.32325,P,ugm-3,16.10578,P,ugm-3,28.86791,P,ugm-3,3.491,P,ugm-3 (Ref.eq)
09-01-2024,16:00,4.875,P,ugm-3 (FIDAS),8.08348,P,ugm-3,15.20216,P,ugm-3,27.59666,P,ugm-3,3.278,P,ugm-3 (Ref.eq)
09-01-2024,17:00,5.625,P,ugm-3 (FIDAS),12.22798,P,ugm-3,17.79905,P,ugm-3,36.54836,P,ugm-3,3.821,P,ugm-3 (Ref.eq)